Regional Weather Roundup
Issued by NWS Green Bay, WI

Home | Current Version | Previous Version | Text Only | Print | Product List | Glossary On
Versions: 1 2 3 4 5 6 7 8 9 10 11 12 13 14 15 16 17 18 19 20 21 22 23 24 25 26 27 28 29 30 31 32 33 34 35 36 37 38 39 40 41 42 43 44 45 46 47 48 49 50
000
ASUS43 KGRB 081211
RWRGRB

NORTH-CENTRAL AND NORTHEAST WISCONSIN REGIONAL WEATHER ROUNDUP
NATIONAL WEATHER SERVICE GREEN BAY WI
600 AM CST THU DEC 08 2016

WIZ005-009-010>012-018-019-081300-
NORTH CENTRAL WISCONSIN

CITY           SKY/WX    TMP DP  RH WIND       PRES   REMARKS
IRONWOOD       LGT SNOW  25  21  85 NW13G25   29.98R FOG
MANITOWISH WTR LGT SNOW  17  16  98 W6        29.95R WCI   8
ARBOR VITAE    CLOUDY    21  17  87 W6        29.95R
EAGLE RIVER    CLOUDY    18  14  83 W10       29.92R WCI   6
LAND O LAKES   LGT SNOW  19  16  88 W5        29.93R
RHINELANDER    FLURRIES  18  14  84 W14       29.96R WCI   4
PHILLIPS       CLOUDY    17  15  91 W5        30.00R WCI  10
ANTIGO         FLURRIES  14  11  87 W13G20    29.98R WCI   0
TOMAHAWK       FLURRIES  16  12  85 W9G17     29.99R WCI   4
MERRILL        FLURRIES  16  12  85 W9        30.02R WCI   4
$$

WIZ013-073-081300-
NORTHEAST WISCONSIN

CITY           SKY/WX    TMP DP  RH WIND       PRES   REMARKS
IRON MOUNTAIN  FLURRIES  18  11  74 W8        29.90R WCI   8
MARINETTE      FLURRIES  19  11  70 W13G22    29.98  WCI   6
OCONTO         CLOUDY    19  10  70 W16G24    30.01R WCI   4
$$

WIZ017-030-035>037-045-081300-
CENTRAL WISCONSIN

CITY           SKY/WX    TMP DP  RH WIND       PRES   REMARKS
MEDFORD        LGT SNOW  14  11  86 W12       30.03R WCI   1
WAUSAU         LGT SNOW  15  11  83 W12       30.03R FOG     WCI   2
MOSINEE        LGT SNOW  14  12  92 W13       30.04R WCI   0
MARSHFIELD     LGT SNOW  14  10  84 W14       30.06R FOG     WCI  -1
WISC RAPIDS    LGT SNOW  15  11  83 W13       30.10R FOG     WCI   1
STEVENS POINT  LGT SNOW  14  10  82 W12G18    30.07R WCI   0
WAUPACA        CLOUDY    19  12  74 W15       30.08R WCI   5
SHAWANO        CLOUDY    20  12  72 W8G18     30.03S WCI  10
CLINTONVILLE   FLURRIES  18  10  73 W15G21    30.05R WCI   3
WAUTOMA        LGT SNOW  16  12  84 W14       30.11R FOG     WCI   2
$$

WIZ038-039-048-051-081300-
FOX VALLEY

CITY           SKY/WX    TMP DP  RH WIND       PRES   REMARKS
NWS GREEN BAY  PTCLDY    20  13  74 W15G24    30.04R WCI   6
APPLETON       FLURRIES  18   9  68 W20G25    30.03R WCI   1
OSHKOSH        LGT SNOW  18  11  74 W12       30.07R WCI   5
FOND DU LAC    CLOUDY    19   9  65 W13       30.09R WCI   6
$$

WIZ022-050-052-081300-
EAST CENTRAL WISCONSIN

CITY           SKY/WX    TMP DP  RH WIND       PRES   REMARKS
EPHRAIM        CLOUDY    21  14  75 W16G22    29.94R WCI   7
WASHINGTON ISL CLOUDY    23  16  74 W14G21    29.93R
STURGEON BAY   CLOUDY    20  13  74 W17G25    29.98R WCI   5
MANITOWOC      LGT SNOW  19  15  84 W13       30.04S FOG     WCI   6
SHEBOYGAN      FLURRIES  19  11  70 W14G26    30.07R WCI   6
$$

LMZ563-521-522-541>543-081300-
LAKESHORE

STATION/POSITION TIME  TEMP    WIND        PRES    VSBY  WAVE
                       AIR SEA DIR/SP/G                  HT/PER
                 (UTC) (F)     (DEG/KT/KT) (MB)    (MI)  (FT/S)
SHEBOYGAN LKSHOR 1200   20     260/ 19/ 23 1019.1R
KEWAUNEE LKSHORE 1142   19     330/ 19/ 23 1015.6R
ALGOMA MARINA    1051          270/ 15/ 20   N/A
NORTHPORT PIER   1140   23     270/ 10/ 17 1013.5S
SISTER BAY LKSHO 1151   23     290/ 21/ 25   N/A
CHAMBERS ISLAND  1140   21     230/ 16/ 27 1013.5S
MENOMINEE LKSHOR 1142   20     250/ 13/ 20 1013.9R
$$




USA.gov is the U.S. government's official web portal to all federal, state and local government web resources and services.